• In Netherlands
  • List of Countries
  • For 7 days
  • Water Temperature
  • Satellite Maps
  • Weather Map
  • Weather Widgets
  • user-avatar
    Login

    Hourly Weather Uida

    Today, 25 September, Monday

    Time Temperature Precipitation Wind Pressure Humidity
    00:00 +26°C° 0 mm 2 mps 758 mmHg 86%
    01:00 +26°C° 0 mm 2 mps 757 mmHg 87%
    02:00 +26°C° 0 mm 2 mps 757 mmHg 89%
    03:00 +26°C° 0 mm 2 mps 757 mmHg 90%
    04:00 +26°C° 0 mm 2 mps 757 mmHg 91%
    05:00 +26°C° 0 mm 2 mps 757 mmHg 91%
    06:00 +26°C° 0 mm 2 mps 757 mmHg 91%
    07:00 +28°C° 0 mm 2 mps 758 mmHg 82%
    08:00 +30°C° 0 mm 2 mps 758 mmHg 74%
    09:00 +32°C° 0 mm 2 mps 758 mmHg 65%
    10:00 +34°C° 0 mm 3 mps 758 mmHg 60%
    11:00 +35°C° 0 mm 3 mps 757 mmHg 55%
    12:00 +36°C° 0 mm 3 mps 757 mmHg 50%
    13:00 +36°C° 0 mm 3 mps 756 mmHg 52%
    14:00 +36°C° 0 mm 4 mps 756 mmHg 54%
    15:00 +35°C° 0 mm 4 mps 755 mmHg 55%
    16:00 +33°C° 0.1 mm 4 mps 755 mmHg 63%
    17:00 +32°C° 0.1 mm 4 mps 755 mmHg 70%
    18:00 +29°C° 0.1 mm 4 mps 756 mmHg 77%
    19:00 +28°C° 0.1 mm 4 mps 756 mmHg 80%
    20:00 +28°C° 0.1 mm 4 mps 757 mmHg 83%
    21:00 +28°C° 0.1 mm 4 mps 757 mmHg 86%
    22:00 +27°C° 0 mm 4 mps 757 mmHg 87%
    23:00 +27°C° 0 mm 3 mps 757 mmHg 88%

    Tomorrow, 26 September, Tuesday

    Time Temperature Precipitation Wind Pressure Humidity
    00:00 +27°C° 0 mm 3 mps 757 mmHg 89%
    01:00 +27°C° 0 mm 3 mps 757 mmHg 89%
    02:00 +27°C° 0 mm 4 mps 756 mmHg 89%
    03:00 +27°C° 0 mm 4 mps 756 mmHg 90%
    04:00 +27°C° 0.1 mm 4 mps 756 mmHg 89%
    05:00 +27°C° 0.1 mm 4 mps 756 mmHg 89%
    06:00 +27°C° 0.1 mm 4 mps 756 mmHg 89%
    07:00 +28°C° 0 mm 4 mps 757 mmHg 84%
    08:00 +29°C° 0 mm 4 mps 757 mmHg 78%
    09:00 +30°C° 0 mm 4 mps 757 mmHg 73%
    10:00 +32°C° 0.5 mm 5 mps 757 mmHg 70%
    11:00 +33°C° 0.5 mm 5 mps 757 mmHg 68%
    12:00 +33°C° 0.5 mm 5 mps 756 mmHg 66%
    13:00 +33°C° 0.5 mm 5 mps 756 mmHg 67%
    14:00 +33°C° 0.5 mm 5 mps 755 mmHg 68%
    15:00 +32°C° 0.5 mm 5 mps 755 mmHg 68%
    16:00 +30°C° 0 mm 5 mps 755 mmHg 72%
    17:00 +29°C° 0 mm 5 mps 755 mmHg 75%
    18:00 +28°C° 0 mm 4 mps 756 mmHg 79%
    19:00 +28°C° 0 mm 4 mps 756 mmHg 80%
    20:00 +28°C° 0 mm 4 mps 757 mmHg 81%
    21:00 +28°C° 0 mm 4 mps 757 mmHg 82%
    22:00 +28°C° 0 mm 4 mps 757 mmHg 83%
    23:00 +27°C° 0 mm 3 mps 757 mmHg 84%

    Day after tomorrow, 27 September, Wednesday

    Time Temperature Precipitation Wind Pressure Humidity
    00:00 +27°C° 0 mm 3 mps 757 mmHg 85%
    01:00 +27°C° 0 mm 3 mps 757 mmHg 86%
    02:00 +27°C° 0 mm 3 mps 756 mmHg 87%
    03:00 +26°C° 0 mm 3 mps 756 mmHg 88%
    04:00 +26°C° 0 mm 3 mps 756 mmHg 88%
    05:00 +26°C° 0 mm 3 mps 757 mmHg 89%
    06:00 +26°C° 0 mm 3 mps 757 mmHg 89%
    07:00 +28°C° 0 mm 3 mps 757 mmHg 82%
    08:00 +30°C° 0 mm 3 mps 758 mmHg 74%
    09:00 +31°C° 0 mm 3 mps 758 mmHg 67%
    10:00 +33°C° 0 mm 4 mps 758 mmHg 65%
    11:00 +33°C° 0 mm 4 mps 757 mmHg 63%
    12:00 +34°C° 0 mm 4 mps 757 mmHg 61%
    13:00 +34°C° 0 mm 4 mps 756 mmHg 61%
    14:00 +33°C° 0 mm 4 mps 756 mmHg 61%
    15:00 +33°C° 0 mm 4 mps 755 mmHg 62%
    16:00 +32°C° 0 mm 4 mps 755 mmHg 67%
    17:00 +30°C° 0 mm 4 mps 756 mmHg 72%
    18:00 +29°C° 0 mm 4 mps 756 mmHg 77%
    19:00 +28°C° 0 mm 4 mps 757 mmHg 79%
    20:00 +28°C° 0 mm 4 mps 757 mmHg 82%
    21:00 +27°C° 0 mm 4 mps 758 mmHg 84%
    22:00 +27°C° 0 mm 4 mps 758 mmHg 86%
    23:00 +27°C° 0 mm 3 mps 758 mmHg 87%

    28 September, Thursday

    Time Temperature Precipitation Wind Pressure Humidity
    00:00 +27°C° 0 mm 3 mps 758 mmHg 88%
    01:00 +27°C° 0 mm 3 mps 757 mmHg 89%
    02:00 +27°C° 0 mm 3 mps 757 mmHg 90%
    03:00 +26°C° 0 mm 3 mps 757 mmHg 90%
    04:00 +26°C° 0 mm 3 mps 757 mmHg 90%
    05:00 +26°C° 0 mm 3 mps 757 mmHg 89%
    06:00 +26°C° 0 mm 4 mps 757 mmHg 89%
    07:00 +28°C° 0 mm 4 mps 758 mmHg 81%
    08:00 +30°C° 0 mm 4 mps 758 mmHg 73%
    09:00 +33°C° 0 mm 4 mps 759 mmHg 65%
    10:00 +34°C° 0 mm 4 mps 758 mmHg 60%
    11:00 +35°C° 0 mm 4 mps 758 mmHg 56%
    12:00 +36°C° 0 mm 4 mps 757 mmHg 51%
    13:00 +35°C° 0.1 mm 4 mps 757 mmHg 54%
    14:00 +35°C° 0.1 mm 4 mps 756 mmHg 56%
    15:00 +34°C° 0.1 mm 4 mps 755 mmHg 59%
    16:00 +33°C° 0.3 mm 4 mps 756 mmHg 65%
    17:00 +30°C° 0.3 mm 4 mps 756 mmHg 71%
    18:00 +29°C° 0.3 mm 4 mps 757 mmHg 77%
    19:00 +28°C° 0.7 mm 4 mps 757 mmHg 80%
    20:00 +28°C° 0.7 mm 3 mps 758 mmHg 82%
    21:00 +27°C° 0.7 mm 3 mps 759 mmHg 85%
    22:00 +27°C° 1.4 mm 3 mps 759 mmHg 86%
    23:00 +27°C° 1.4 mm 3 mps 758 mmHg 87%

    29 September, Friday

    Time Temperature Precipitation Wind Pressure Humidity
    00:00 +27°C° 1.4 mm 3 mps 758 mmHg 88%
    01:00 +27°C° 0.4 mm 3 mps 758 mmHg 88%
    02:00 +26°C° 0.4 mm 3 mps 757 mmHg 89%
    03:00 +26°C° 0.4 mm 3 mps 757 mmHg 89%
    04:00 +26°C° 0 mm 3 mps 757 mmHg 89%
    05:00 +26°C° 0 mm 2 mps 758 mmHg 89%
    06:00 +26°C° 0 mm 2 mps 758 mmHg 89%
    07:00 +28°C° 0.1 mm 3 mps 758 mmHg 83%
    08:00 +29°C° 0.1 mm 3 mps 759 mmHg 77%
    09:00 +30°C° 0.1 mm 3 mps 759 mmHg 71%
    10:00 +30°C° 0 mm 3 mps 758 mmHg 70%
    11:00 +32°C° 0 mm 4 mps 758 mmHg 68%
    12:00 +32°C° 0 mm 4 mps 757 mmHg 67%
    13:00 +32°C° 0 mm 4 mps 757 mmHg 64%
    14:00 +33°C° 0 mm 4 mps 756 mmHg 61%
    15:00 +34°C° 0 mm 4 mps 755 mmHg 58%
    16:00 +32°C° 0 mm 4 mps 756 mmHg 64%
    17:00 +30°C° 0 mm 4 mps 756 mmHg 70%
    18:00 +29°C° 0 mm 4 mps 756 mmHg 76%
    19:00 +28°C° 0 mm 4 mps 757 mmHg 79%
    20:00 +28°C° 0 mm 3 mps 757 mmHg 82%
    21:00 +27°C° 0 mm 3 mps 758 mmHg 85%
    22:00 +27°C° 0 mm 3 mps 758 mmHg 86%
    23:00 +27°C° 0 mm 3 mps 758 mmHg 87%

    30 September, Saturday

    Time Temperature Precipitation Wind Pressure Humidity
    00:00 +26°C° 0 mm 3 mps 757 mmHg 89%
    01:00 +26°C° 0 mm 3 mps 757 mmHg 89%
    02:00 +26°C° 0 mm 3 mps 757 mmHg 90%
    03:00 +26°C° 0 mm 3 mps 756 mmHg 90%
    04:00 +26°C° 0 mm 3 mps 757 mmHg 91%
    05:00 +26°C° 0 mm 3 mps 757 mmHg 91%
    06:00 +26°C° 0 mm 3 mps 757 mmHg 91%
    07:00 +28°C° 0 mm 3 mps 757 mmHg 82%
    08:00 +30°C° 0 mm 3 mps 757 mmHg 73%
    09:00 +33°C° 0 mm 4 mps 758 mmHg 64%
    10:00 +34°C° 0 mm 4 mps 757 mmHg 59%
    11:00 +35°C° 0 mm 4 mps 756 mmHg 54%
    12:00 +36°C° 0 mm 4 mps 756 mmHg 50%
    13:00 +36°C° 0 mm 4 mps 755 mmHg 51%
    14:00 +36°C° 0 mm 4 mps 755 mmHg 52%
    15:00 +35°C° 0 mm 4 mps 754 mmHg 53%
    16:00 +33°C° 0.1 mm 4 mps 754 mmHg 62%
    17:00 +32°C° 0.1 mm 4 mps 755 mmHg 70%
    18:00 +29°C° 0.1 mm 4 mps 755 mmHg 78%
    19:00 +28°C° 0.1 mm 4 mps 756 mmHg 81%
    20:00 +28°C° 0.1 mm 4 mps 756 mmHg 84%
    21:00 +27°C° 0.1 mm 4 mps 756 mmHg 87%
    22:00 +27°C° 0.1 mm 4 mps 756 mmHg 88%
    23:00 +27°C° 0.1 mm 4 mps 756 mmHg 89%
    Show more